Regional Weather Roundup
Issued by NWS Sterling, VA

Home | Current Version | Previous Version | Graphics & Text | Print | Product List | Glossary On
Versions: 1 2 3 4 5 6 7 8 9 10 11 12 13 14 15 16 17 18 19 20 21 22 23 24 25 26 27
000
ASUS41 KLWX 181010
RWRLWX

REGIONAL WEATHER ROUNDUP
NATIONAL WEATHER SERVICE BALTIMORE MD/WASHINGTON DC
600 AM EDT FRI APR 18 2014

Note: "FAIR" indicates few or no clouds below 12,000 feet
with no significant weather and/or obstructions to visibility.
 TC=TEMPERATURE CELSIUS

 * =Non NWS site. Station does not report precipitation (e.g. rain,
    snow, etc.), thunder, or fog.

DCZ001-MDZ009-015-VAZ040>042-051-053>054-181100-
WASHINGTON METRO

CITY           SKY/WX    TMP DP  RH WIND       PRES   REMARKS
WASHINGTON NAT CLOUDY    41  31  67 E5        30.52R
DULLES         CLOUDY    31  29  92 CALM      30.51R
ANDREWS AFB    CLOUDY    38  30  75 NE6       30.50R
FT BELVOIR     CLOUDY    34  32  94 CALM      30.52R
QUANTICO       CLOUDY    40  31  70 E7        30.53R
COLLEGE PARK*  CLOUDY    39  32  75 CALM      30.51R
LEESBURG*      MOCLDY    34  32  93 CALM      30.52R
MANASSAS*      PTCLDY    30  30 100 CALM      30.52R
GAITHERSBURG*  CLOUDY    34  28  80 CALM      30.53R

$$

MDZ006>007-011-014-181100-
BALTIMORE METRO

CITY           SKY/WX    TMP DP  RH WIND       PRES   REMARKS
BWI AIRPORT    CLOUDY    39  30  70 E6        30.51R
MD SCIENCE CTR   N/A     40  30  67 MISG      30.51S
ANNAPOLIS      CLOUDY    40  32  73 E6        30.51R
FORT MEADE*    CLOUDY    37  32  81 CALM      30.54R

$$

MDZ012-015-019>023-181100-
MARYLAND EASTERN SHORE

CITY           SKY/WX    TMP DP  RH WIND       PRES   REMARKS
OCEAN CITY     CLOUDY    42  34  73 N10       30.47R
SALISBURY      CLOUDY    39  32  76 N6        30.48R
BAY BRIDGE AP* CLOUDY    39  32  75 CALM      30.51R
CAMBRIDGE*     CLOUDY    41  32  70 NE6       30.50R
EASTON*        MOCLDY    41  35  76 CALM      30.54R

$$

MDZ017>025-181100-
SOUTHERN MARYLAND

CITY           SKY/WX    TMP DP  RH WIND       PRES   REMARKS
PATUXENT RIVER MOCLDY    38  30  73 NE7       30.50R
ST INIGOES     MOCLDY    38  32  79 CALM      30.49R
LEONARDTOWN*   CLOUDY    37  32  81 CALM      30.51R

$$

MDZ003>005-181100-
NORTH CENTRAL MARYLAND

CITY           SKY/WX    TMP DP  RH WIND       PRES   REMARKS
FREDERICK*     MOCLDY    32  32 100 CALM      30.54R
HAGERSTOWN APT MOCLDY    35  27  72 SE6       30.48R
WESTMINSTER*   MOCLDY    32  28  86 CALM      30.49R

$$

MDZ501>502-181100-
WESTERN MARYLAND

CITY           SKY/WX    TMP DP  RH WIND       PRES   REMARKS
OAKLAND*       MOCLDY    32  28  86 SE13      30.33R WCI  22
CUMBERLAND*    MOCLDY    37  32  81 CALM      30.49R

$$

VAZ025>031-181100-
SHENANDOAH VALLEY

CITY           SKY/WX    TMP DP  RH WIND       PRES   REMARKS
WINCHESTER*    MOCLDY    34  32  93 CALM      30.47R
STAUNTON*      MOCLDY    33  29  86 CALM      30.45S

$$

WVZ021-048>050-054>055-181100-
EASTERN WEST VIRGINIA PANHANDLE

CITY           SKY/WX    TMP DP  RH WIND       PRES   REMARKS
MARTINSBURG    MOCLDY    35  28  75 CALM      30.48S
PETERSBURG*    MOCLDY    36  34  91 CALM      30.44R

$$

VAZ036>039-050-181100-
CENTRAL FOOTHILLS

CITY           SKY/WX    TMP DP  RH WIND       PRES   REMARKS
CHARLOTTESVILL CLOUDY    39  35  86 CALM      30.47F
CULPEPER*      PTCLDY    34  34 100 CALM      30.51S FOG

$$

VAZ055>057-181100-
NORTH AND CENTRAL PIEDMONT

CITY           SKY/WX    TMP DP  RH WIND       PRES   REMARKS
FREDERICKSBRG* CLOUDY    37  36  93 CALM      30.51R
STAFFORD*      CLOUDY    32  32 100 CALM      30.55S

$$

NCZ024-NYZ072-PAZ021-071-VAZ022-071-181100-
OTHER REGIONAL OBSERVATIONS

CITY           SKY/WX    TMP DP  RH WIND       PRES   REMARKS
NEW YORK CITY  CLOUDY    36  26  67 NE10      30.54R WCI  28
PHILADELPHIA   MOCLDY    39  27  62 NE7       30.51F
PITTSBURGH     CLOUDY    42  27  55 SE5       30.31R
ROANOKE        CLOUDY    38  32  79 SE5       30.45F
RICHMOND       MOCLDY    36  32  85 N6        30.48R
RALEIGH        MOCLDY    39  35  86 N5        30.43R

$$

ANZ530>537-181100-
MARINE OBSERVATIONS

STATION/POSITION TIME  TEMP    WIND        PRES
                       AIR SEA DIR/SP/G
                 (UTC) (F)     (DEG/KT/KT) (MB)
THOMAS PT LIGHT  1000   39 52   80/  7/  8 1033.8R
BALT KEY BRIDGE  1000   39      50/  3/  4 1033.3R
COVE POINT       1000   39      80/  5/  7 1032.5R
LEWISETTA        1000   41 52   50/  5/  7 1032.1S
SOLOMONS ISLAND  1000      52                N/A
PINEY POINT      1000           30/  5/  6   N/A

$$




USA.gov is the U.S. government's official web portal to all federal, state and local government web resources and services.